This is the latest recevied weather packets stored in our database for station/object K5IDL. If no packets are shown the sender has not sent any weather packets the latest 10 day(s).
| Time | Temp. | Humidity | Pressure | Rain* | Wind** | Luminosity | Snow |
|---|---|---|---|---|---|---|---|
| 1778032728 | 21.67° C | 74% | 1007.8 hPa | 0 mm | - | 0 W/m² | - |
| 1778032426 | 22.22° C | 73% | 1007.7 hPa | 0 mm | - | 0 W/m² | - |
| 1778032122 | 22.78° C | 72% | 1007.9 hPa | 0 mm | - | 0 W/m² | - |
| 1778031819 | 23.33° C | 71% | 1007.2 hPa | 0 mm | - | 0 W/m² | - |
| 1778031515 | 23.33° C | 71% | 1007.8 hPa | 0 mm | - | 0 W/m² | - |
| 1778031213 | 23.33° C | 70% | 1007.2 hPa | 0 mm | - | 0 W/m² | - |
| 1778030909 | 23.33° C | 70% | 1007 hPa | 0 mm | - | 0 W/m² | - |
| 1778030606 | 23.33° C | 70% | 1007.2 hPa | 0 mm | - | 0 W/m² | - |
| 1778030304 | 23.33° C | 69% | 1007.2 hPa | 0 mm | - | 0 W/m² | - |
| 1778030000 | 23.33° C | 69% | 1007.1 hPa | 0 mm | - | 0 W/m² | - |
| 1778029697 | 23.33° C | 69% | 1007 hPa | 0 mm | - | 1 W/m² | - |
| 1778029395 | 23.89° C | 68% | 1007.1 hPa | 0 mm | - | 1 W/m² | - |
| 1778029092 | 23.89° C | 68% | 1006.5 hPa | 0 mm | - | 2 W/m² | - |
| 1778028789 | 23.33° C | 68% | 1006.3 hPa | 0 mm | - | 2 W/m² | - |
| 1778028485 | 23.89° C | 67% | 1006.8 hPa | 0 mm | - | 2 W/m² | - |
| 1778028183 | 23.89° C | 67% | 1006.8 hPa | 0 mm | - | 2 W/m² | - |
| 1778027878 | 23.89° C | 66% | 1006.9 hPa | 0 mm | - | 3 W/m² | - |
| 1778027575 | 24.44° C | 67% | 1006.8 hPa | 0 mm | - | 4 W/m² | - |
| 1778027271 | 25° C | 67% | 1006.7 hPa | 0 mm | - | 6 W/m² | - |
| 1778026968 | 25° C | 67% | 1006.5 hPa | 0 mm | - | 11 W/m² | - |
| 1778026663 | 25° C | 67% | 1006.6 hPa | 0 mm | - | 14 W/m² | - |
| 1778026361 | 25.56° C | 66% | 1006.6 hPa | 0 mm | - | 14 W/m² | - |
| 1778026058 | 26.11° C | 64% | 1006.3 hPa | 0 mm | - | 20 W/m² | - |
| 1778025756 | 26.11° C | 64% | 1006 hPa | 0 mm | - | 33 W/m² | - |
| 1778025452 | 26.67° C | 63% | 1006 hPa | 0 mm | - | 31 W/m² | - |
* Rain latest hour (hover to see other rain measurements)
** Current wind speed in m/s (hover to see current wind gust speed)